Location: Peebles
(55.6412°N, 3.1714°W)
Time: 18:29:17
(UTC+01:00)

USA 281 - Pass Details

Date: 28 January 2022
Orbit: 1070 x 1089 km, 106.0° (Epoch: 25 March)

Event Time Altitude Azimuth Distance (km) Brightness Sun altitude
Rises 03:25:00 0° 30° (NNE) 3,905 6.8 -39.7°
Reaches altitude 10° 03:27:34 10° 26° (NNE) 2,947 6.0 -39.3°
Enters shadow 03:31:06 33° 12° (NNE) 1,758 4.5 -38.9°
